CDT,Max TemperatureF,Mean TemperatureF,Min TemperatureF,Max Dew PointF,MeanDew PointF,Min DewpointF,Max Humidity, Mean Humidity, Min Humidity, Max Sea Level PressureIn, Mean Sea Level PressureIn, Min Sea Level PressureIn, Max VisibilityMiles, Mean VisibilityMiles, Min VisibilityMiles, Max Wind SpeedMPH, Mean Wind SpeedMPH, Max Gust SpeedMPH,PrecipitationIn, CloudCover, Events, WindDirDegrees
2013-9-1,106,92,77,76,73,68,89,65,29,29.91,29.84,29.77,10,10,10,17,3,24,0.00,1,Rain-Thunderstorm,142
2013-9-2,100,90,79,76,73,65,88,63,37,29.99,29.92,29.85,10,10,10,10,4,,0.00,3,Thunderstorm,326
2013-9-3,101,88,75,74,68,62,74,53,28,30.00,29.95,29.89,10,10,10,8,3,,0.00,2,,34
2013-9-4,100,88,77,70,66,57,73,50,24,30.10,30.04,29.99,10,10,10,13,6,18,0.00,0,,104
2013-9-5,100,86,73,68,64,60,72,49,27,30.15,30.09,30.03,10,10,10,13,5,,0.00,0,,108
2013-9-6,102,88,73,67,64,60,77,48,26,30.12,30.05,29.96,10,10,10,8,5,,0.00,0,,110
2013-9-7,103,88,74,72,66,64,72,49,28,30.05,29.98,29.92,10,10,10,10,4,,0.00,0,,147
2013-9-8,102,88,74,71,66,60,84,50,27,30.01,29.95,29.89,10,10,10,9,4,20,0.00,0,,191
2013-9-9,99,87,75,71,66,63,74,49,30,30.03,29.97,29.93,10,10,7,12,5,26,0.00,1,,171
2013-9-10,98,86,73,72,66,63,76,52,33,30.13,30.06,29.98,10,10,7,10,4,17,0.00,0,,172
2013-9-11,100,86,73,72,68,66,85,57,33,30.15,30.08,30.01,10,10,10,13,1,20,0.00,1,,143
2013-9-12,101,87,75,74,71,66,90,65,33,30.10,30.03,29.96,10,10,7,15,2,21,0.00,1,,59
2013-9-13,98,86,74,75,72,68,90,73,39,30.01,29.96,29.90,10,10,10,14,3,21,0.00,1,Rain-Thunderstorm,53
2013-9-14,92,81,71,71,59,56,77,48,34,30.04,29.98,29.93,10,10,10,15,9,23,0.00,3,,120
2013-9-15,98,82,67,68,61,53,62,48,36,30.07,30.02,29.98,10,10,10,12,6,,0.00,0,,127
2013-9-16,99,86,73,68,65,62,78,52,32,30.13,30.06,30.00,10,10,10,10,3,16,0.00,1,,93
2013-9-17,97,86,75,74,66,60,73,55,37,30.11,30.04,29.97,10,10,10,10,6,,0.00,2,Rain,127
2013-9-18,98,88,78,76,72,68,86,69,38,30.04,29.98,29.92,10,10,10,15,4,32,0.00,1,Rain-Thunderstorm,130
2013-9-19,97,86,76,76,72,68,95,69,40,30.02,29.95,29.88,10,10,4,12,5,18,0.00,2,Rain-Thunderstorm,172
2013-9-20,79,75,70,75,72,62,96,88,73,29.95,29.91,29.87,10,9,4,10,4,17,0.00,7,Rain,31
2013-9-21,87,74,61,61,52,43,85,52,22,30.00,29.93,29.88,10,10,10,12,6,21,0.00,0,,23
2013-9-22,86,72,57,57,54,50,83,57,29,29.97,29.89,29.83,10,10,5,8,2,,0.00,0,,124
2013-9-23,86,72,58,60,57,52,90,61,31,29.90,29.86,29.79,10,10,10,9,4,9,0.00,0,,125
2013-9-24,96,80,64,64,54,41,86,49,16,29.92,29.87,29.83,10,10,10,18,4,25,0.00,0,,324
2013-9-25,94,78,61,61,55,51,80,49,24,29.92,29.85,29.79,10,10,2,12,2,17,0.00,0,,308
2013-9-26,97,81,65,64,62,59,87,57,27,29.93,29.87,29.83,10,10,10,13,5,18,0.00,0,,121
2013-9-27,94,80,66,67,65,62,92,60,36,29.99,29.93,29.88,10,10,10,13,6,23,0.00,1,,135
2013-9-28,87,78,69,78,70,65,96,78,54,30.03,29.96,29.90,10,9,1,12,6,17,0.00,8,Rain-Thunderstorm,163
2013-9-29,86,76,66,68,64,56,95,71,42,30.03,29.97,29.90,10,10,10,9,5,,0.00,3,,335
2013-9-30,89,76,65,71,66,60,97,75,42,29.93,29.88,29.83,10,9,0,10,2,16,0.00,3,Fog,137